owner,sensor,date,latitude,longitude,air_pressure(mBar),qcFlag 
TABS,ioos:station:wmo:42043:1,2014-05-01T00:00:00Z,28.9818,-94.9186,1016.73,11111222 
TABS,ioos:station:wmo:42043:1,2014-05-01T00:30:00Z,28.9818,-94.9186,1016.87,11111222 
TABS,ioos:station:wmo:42043:1,2014-05-01T01:00:00Z,28.9818,-94.9186,1017.53,11111222 
TABS,ioos:station:wmo:42043:1,2014-05-01T01:30:00Z,28.9818,-94.9186,1017.74,11111222 
TABS,ioos:station:wmo:42043:1,2014-05-01T02:00:00Z,28.9818,-94.9186,1018.69,11111222 
TABS,ioos:station:wmo:42043:1,2014-05-01T02:30:00Z,28.9818,-94.9186,1018.92,11111222 
TABS,ioos:station:wmo:42043:1,2014-05-01T03:00:00Z,28.9818,-94.9186,1019.2,11111222 
TABS,ioos:station:wmo:42043:1,2014-05-01T03:30:00Z,28.9818,-94.9186,1019.32,11111222 
TABS,ioos:station:wmo:42043:1,2014-05-01T04:00:00Z,28.9818,-94.9186,1019.74,11111222 
TABS,ioos:station:wmo:42043:1,2014-05-01T04:30:00Z,28.9818,-94.9186,1019.94,11111222 
TABS,ioos:station:wmo:42043:1,2014-05-01T05:00:00Z,28.9818,-94.9186,1020.05,11111222 
TABS,ioos:station:wmo:42043:1,2014-05-01T05:30:00Z,28.9818,-94.9186,1020.18,11111222 
TABS,ioos:station:wmo:42043:1,2014-05-01T06:00:00Z,28.9818,-94.9186,1020.24,11111222 
TABS,ioos:station:wmo:42043:1,2014-05-01T06:30:00Z,28.9818,-94.9186,1020.22,11111222 
TABS,ioos:station:wmo:42043:1,2014-05-01T07:00:00Z,28.9818,-94.9186,1020.16,11111222 
TABS,ioos:station:wmo:42043:1,2014-05-01T07:30:00Z,28.9818,-94.9186,1020.53,11111222 
TABS,ioos:station:wmo:42043:1,2014-05-01T08:00:00Z,28.9818,-94.9186,1020.29,11111222 
TABS,ioos:station:wmo:42043:1,2014-05-01T08:30:00Z,28.9818,-94.9186,1020.3,11111222 
TABS,ioos:station:wmo:42043:1,2014-05-01T09:00:00Z,28.9818,-94.9186,1020.33,11111222 
TABS,ioos:station:wmo:42043:1,2014-05-01T09:30:00Z,28.9818,-94.9186,1020.21,11111222 
TABS,ioos:station:wmo:42043:1,2014-05-01T10:00:00Z,28.9818,-94.9186,1019.99,11111222 
TABS,ioos:station:wmo:42043:1,2014-05-01T10:30:00Z,28.9818,-94.9186,1020.06,11111222 
TABS,ioos:station:wmo:42043:1,2014-05-01T11:00:00Z,28.9818,-94.9186,1020.23,11111222 
TABS,ioos:station:wmo:42043:1,2014-05-01T11:30:00Z,28.9818,-94.9186,1020.21,11111222 
TABS,ioos:station:wmo:42043:1,2014-05-01T12:00:00Z,28.9818,-94.9186,1020.6,11111222 
TABS,ioos:station:wmo:42043:1,2014-05-01T12:30:00Z,28.9818,-94.9186,1020.73,11111222 
TABS,ioos:station:wmo:42043:1,2014-05-01T13:00:00Z,28.9818,-94.9186,1020.78,11111222 
TABS,ioos:station:wmo:42043:1,2014-05-01T13:30:00Z,28.9818,-94.9186,1021.35,11111222 
TABS,ioos:station:wmo:42043:1,2014-05-01T14:00:00Z,28.9818,-94.9186,1021.35,11111222 
TABS,ioos:station:wmo:42043:1,2014-05-01T14:30:00Z,28.9818,-94.9186,1021.1,11111222 
TABS,ioos:station:wmo:42043:1,2014-05-01T15:00:00Z,28.9818,-94.9186,1021.54,11111222 
TABS,ioos:station:wmo:42043:1,2014-05-01T15:30:00Z,28.9818,-94.9186,1021.65,11111222 
TABS,ioos:station:wmo:42043:1,2014-05-01T16:00:00Z,28.9818,-94.9186,1021.42,11111222 
TABS,ioos:station:wmo:42043:1,2014-05-01T16:30:00Z,28.9818,-94.9186,1021.06,11111222 
TABS,ioos:station:wmo:42043:1,2014-05-01T17:00:00Z,28.9818,-94.9186,1020.74,11111222 
TABS,ioos:station:wmo:42043:1,2014-05-01T17:30:00Z,28.9818,-94.9186,1020.94,11111222 
TABS,ioos:station:wmo:42043:1,2014-05-01T18:00:00Z,28.9818,-94.9186,1019.83,11111222 
TABS,ioos:station:wmo:42043:1,2014-05-01T18:30:00Z,28.9818,-94.9186,1020.16,11111222 
TABS,ioos:station:wmo:42043:1,2014-05-01T19:00:00Z,28.9818,-94.9186,1020.34,11111222 
TABS,ioos:station:wmo:42043:1,2014-05-01T19:30:00Z,28.9818,-94.9186,1019.52,11111222 
TABS,ioos:station:wmo:42043:1,2014-05-01T20:00:00Z,28.9818,-94.9186,1019.42,11111222 
TABS,ioos:station:wmo:42043:1,2014-05-01T20:30:00Z,28.9818,-94.9186,1018.59,11111222 
TABS,ioos:station:wmo:42043:1,2014-05-01T21:00:00Z,28.9818,-94.9186,1018.1,11111222 
TABS,ioos:station:wmo:42043:1,2014-05-01T21:30:00Z,28.9818,-94.9186,1018.54,11111222 
TABS,ioos:station:wmo:42043:1,2014-05-01T22:00:00Z,28.9818,-94.9186,1017.91,11111222 
TABS,ioos:station:wmo:42043:1,2014-05-01T22:30:00Z,28.9818,-94.9186,1017.57,11111222 
TABS,ioos:station:wmo:42043:1,2014-05-01T23:00:00Z,28.9818,-94.9186,1017.11,11111222 
TABS,ioos:station:wmo:42043:1,2014-05-01T23:30:00Z,28.9818,-94.9186,1016.91,11111222 
TABS,ioos:station:wmo:42043:1,2014-05-02T00:00:00Z,28.9818,-94.9186,1017.21,11111222 
TABS,ioos:station:wmo:42043:1,2014-05-02T00:30:00Z,28.9818,-94.9186,1017.39,11111222 
TABS,ioos:station:wmo:42043:1,2014-05-02T01:00:00Z,28.9818,-94.9186,1017.54,11111222 
TABS,ioos:station:wmo:42043:1,2014-05-02T01:30:00Z,28.9818,-94.9186,1017.54,11111222 
TABS,ioos:station:wmo:42043:1,2014-05-02T02:00:00Z,28.9818,-94.9186,1017.73,11111222 
TABS,ioos:station:wmo:42043:1,2014-05-02T02:30:00Z,28.9818,-94.9186,1017.92,11111222 
TABS,ioos:station:wmo:42043:1,2014-05-02T03:00:00Z,28.9818,-94.9186,1018.05,11111222 
TABS,ioos:station:wmo:42043:1,2014-05-02T03:30:00Z,28.9818,-94.9186,1018.2,11111222 
TABS,ioos:station:wmo:42043:1,2014-05-02T04:00:00Z,28.9818,-94.9186,1018.03,11111222 
TABS,ioos:station:wmo:42043:1,2014-05-02T04:30:00Z,28.9818,-94.9186,1018.16,11111222 
TABS,ioos:station:wmo:42043:1,2014-05-02T05:00:00Z,28.9818,-94.9186,1017.99,11111222 
TABS,ioos:station:wmo:42043:1,2014-05-02T05:30:00Z,28.9818,-94.9186,1017.92,11111222 
TABS,ioos:station:wmo:42043:1,2014-05-02T06:00:00Z,28.9818,-94.9186,1017.57,11111222 
TABS,ioos:station:wmo:42043:1,2014-05-02T06:30:00Z,28.9818,-94.9186,1017.14,11111222 
TABS,ioos:station:wmo:42043:1,2014-05-02T07:00:00Z,28.9818,-94.9186,1016.86,11111222 
TABS,ioos:station:wmo:42043:1,2014-05-02T07:30:00Z,28.9818,-94.9186,1016.53,11111222 
TABS,ioos:station:wmo:42043:1,2014-05-02T08:00:00Z,28.9818,-94.9186,1017.01,11111222 
TABS,ioos:station:wmo:42043:1,2014-05-02T08:30:00Z,28.9818,-94.9186,1017.19,11111222 
TABS,ioos:station:wmo:42043:1,2014-05-02T09:00:00Z,28.9818,-94.9186,1017.39,11111222 
TABS,ioos:station:wmo:42043:1,2014-05-02T09:30:00Z,28.9818,-94.9186,1017.89,11111222 
TABS,ioos:station:wmo:42043:1,2014-05-02T10:00:00Z,28.9818,-94.9186,1017.55,11111222 
TABS,ioos:station:wmo:42043:1,2014-05-02T10:30:00Z,28.9818,-94.9186,1017.06,11111222 
TABS,ioos:station:wmo:42043:1,2014-05-02T11:00:00Z,28.9818,-94.9186,1017.44,11111222 
TABS,ioos:station:wmo:42043:1,2014-05-02T11:30:00Z,28.9818,-94.9186,1017.9,11111222 
TABS,ioos:station:wmo:42043:1,2014-05-02T12:00:00Z,28.9818,-94.9186,1018.14,11111222 
TABS,ioos:station:wmo:42043:1,2014-05-02T12:30:00Z,28.9818,-94.9186,1018.44,11111222 
TABS,ioos:station:wmo:42043:1,2014-05-02T13:00:00Z,28.9818,-94.9186,1018.54,11111222 
TABS,ioos:station:wmo:42043:1,2014-05-02T13:30:00Z,28.9818,-94.9186,1018.9,11111222 
TABS,ioos:station:wmo:42043:1,2014-05-02T14:00:00Z,28.9818,-94.9186,1018.8,11111222 
TABS,ioos:station:wmo:42043:1,2014-05-02T14:30:00Z,28.9818,-94.9186,1018.84,11111222 
TABS,ioos:station:wmo:42043:1,2014-05-02T15:00:00Z,28.9818,-94.9186,1019.07,11111222 
TABS,ioos:station:wmo:42043:1,2014-05-02T15:30:00Z,28.9818,-94.9186,1019.35,11111222 
TABS,ioos:station:wmo:42043:1,2014-05-02T16:00:00Z,28.9818,-94.9186,1019.04,11111222 
TABS,ioos:station:wmo:42043:1,2014-05-02T16:30:00Z,28.9818,-94.9186,1019.04,11111222 
TABS,ioos:station:wmo:42043:1,2014-05-02T17:00:00Z,28.9818,-94.9186,1018.58,11111222 
TABS,ioos:station:wmo:42043:1,2014-05-02T17:30:00Z,28.9818,-94.9186,1018.43,11111222 
TABS,ioos:station:wmo:42043:1,2014-05-02T18:00:00Z,28.9818,-94.9186,1017.93,11111222 
TABS,ioos:station:wmo:42043:1,2014-05-02T18:30:00Z,28.9818,-94.9186,1017.59,11111222 
TABS,ioos:station:wmo:42043:1,2014-05-02T19:00:00Z,28.9818,-94.9186,1017.32,11111222 
TABS,ioos:station:wmo:42043:1,2014-05-02T19:30:00Z,28.9818,-94.9186,1016.9,11111222 
TABS,ioos:station:wmo:42043:1,2014-05-02T20:00:00Z,28.9818,-94.9186,1016.43,11111222 
TABS,ioos:station:wmo:42043:1,2014-05-02T20:30:00Z,28.9818,-94.9186,1016.37,11111222 
TABS,ioos:station:wmo:42043:1,2014-05-02T21:00:00Z,28.9818,-94.9186,1016.18,11111222 
TABS,ioos:station:wmo:42043:1,2014-05-02T21:30:00Z,28.9818,-94.9186,1016.19,11111222 
TABS,ioos:station:wmo:42043:1,2014-05-02T22:00:00Z,28.9818,-94.9186,1015.92,11111222 
TABS,ioos:station:wmo:42043:1,2014-05-02T22:30:00Z,28.9818,-94.9186,1015.87,11111222 
TABS,ioos:station:wmo:42043:1,2014-05-02T23:00:00Z,28.9818,-94.9186,1015.86,11111222 
TABS,ioos:station:wmo:42043:1,2014-05-02T23:30:00Z,28.9818,-94.9186,1015.97,11111222 
TABS,ioos:station:wmo:42043:1,2014-05-03T00:00:00Z,28.9818,-94.9186,1015.79,11111222 
TABS,ioos:station:wmo:42043:1,2014-05-03T00:30:00Z,28.9818,-94.9186,1015.93,11111222 
TABS,ioos:station:wmo:42043:1,2014-05-03T01:00:00Z,28.9818,-94.9186,1015.98,11111222 
TABS,ioos:station:wmo:42043:1,2014-05-03T01:30:00Z,28.9818,-94.9186,1016.08,11111222 
TABS,ioos:station:wmo:42043:1,2014-05-03T02:00:00Z,28.9818,-94.9186,1016.59,11111222 
TABS,ioos:station:wmo:42043:1,2014-05-03T02:30:00Z,28.9818,-94.9186,1016.93,11111222 
TABS,ioos:station:wmo:42043:1,2014-05-03T03:00:00Z,28.9818,-94.9186,1016.99,11111222 
TABS,ioos:station:wmo:42043:1,2014-05-03T03:30:00Z,28.9818,-94.9186,1017.32,11111222 
TABS,ioos:station:wmo:42043:1,2014-05-03T04:00:00Z,28.9818,-94.9186,1017.39,11111222 
TABS,ioos:station:wmo:42043:1,2014-05-03T04:30:00Z,28.9818,-94.9186,1017.24,11111222 
TABS,ioos:station:wmo:42043:1,2014-05-03T05:00:00Z,28.9818,-94.9186,1017.38,11111222 
TABS,ioos:station:wmo:42043:1,2014-05-03T05:30:00Z,28.9818,-94.9186,1017.46,11111222 
TABS,ioos:station:wmo:42043:1,2014-05-03T06:00:00Z,28.9818,-94.9186,1017.68,11111222 
TABS,ioos:station:wmo:42043:1,2014-05-03T06:30:00Z,28.9818,-94.9186,1017.41,11111222 
TABS,ioos:station:wmo:42043:1,2014-05-03T07:00:00Z,28.9818,-94.9186,1017.28,11111222 
TABS,ioos:station:wmo:42043:1,2014-05-03T07:30:00Z,28.9818,-94.9186,1017.19,11111222 
TABS,ioos:station:wmo:42043:1,2014-05-03T08:00:00Z,28.9818,-94.9186,1017.23,11111222 
TABS,ioos:station:wmo:42043:1,2014-05-03T08:30:00Z,28.9818,-94.9186,1017.26,11111222 
TABS,ioos:station:wmo:42043:1,2014-05-03T09:00:00Z,28.9818,-94.9186,1017.34,11111222 
TABS,ioos:station:wmo:42043:1,2014-05-03T09:30:00Z,28.9818,-94.9186,1017.3,11111222 
TABS,ioos:station:wmo:42043:1,2014-05-03T10:00:00Z,28.9818,-94.9186,1017.26,11111222 
TABS,ioos:station:wmo:42043:1,2014-05-03T10:30:00Z,28.9818,-94.9186,1017.52,11111222 
TABS,ioos:station:wmo:42043:1,2014-05-03T11:00:00Z,28.9818,-94.9186,1017.75,11111222 
TABS,ioos:station:wmo:42043:1,2014-05-03T11:30:00Z,28.9818,-94.9186,1018.2,11111222 
TABS,ioos:station:wmo:42043:1,2014-05-03T12:00:00Z,28.9818,-94.9186,1018.52,11111222 
TABS,ioos:station:wmo:42043:1,2014-05-03T12:30:00Z,28.9818,-94.9186,1018.82,11111222 
TABS,ioos:station:wmo:42043:1,2014-05-03T13:00:00Z,28.9818,-94.9186,1018.63,11111222 
TABS,ioos:station:wmo:42043:1,2014-05-03T13:30:00Z,28.9818,-94.9186,1019.4,11111222 
TABS,ioos:station:wmo:42043:1,2014-05-03T14:00:00Z,28.9818,-94.9186,1019.76,11111222 
TABS,ioos:station:wmo:42043:1,2014-05-03T14:30:00Z,28.9818,-94.9186,1019.85,11111222 
TABS,ioos:station:wmo:42043:1,2014-05-03T15:00:00Z,28.9818,-94.9186,1020.05,11111222 
TABS,ioos:station:wmo:42043:1,2014-05-03T15:30:00Z,28.9818,-94.9186,1020.27,11111222 
TABS,ioos:station:wmo:42043:1,2014-05-03T16:00:00Z,28.9818,-94.9186,1020.26,11111222 
TABS,ioos:station:wmo:42043:1,2014-05-03T16:30:00Z,28.9818,-94.9186,1020.28,11111222 
TABS,ioos:station:wmo:42043:1,2014-05-03T17:00:00Z,28.9818,-94.9186,1020.31,11111222 
TABS,ioos:station:wmo:42043:1,2014-05-03T17:30:00Z,28.9818,-94.9186,1020.24,11111222 
TABS,ioos:station:wmo:42043:1,2014-05-03T18:00:00Z,28.9818,-94.9186,1019.72,11111222 
TABS,ioos:station:wmo:42043:1,2014-05-03T18:30:00Z,28.9818,-94.9186,1019.74,11111222 
TABS,ioos:station:wmo:42043:1,2014-05-03T19:00:00Z,28.9818,-94.9186,1019.58,11111222 
TABS,ioos:station:wmo:42043:1,2014-05-03T19:30:00Z,28.9818,-94.9186,1019.33,11111222 
TABS,ioos:station:wmo:42043:1,2014-05-03T20:00:00Z,28.9818,-94.9186,1019.03,11111222 
TABS,ioos:station:wmo:42043:1,2014-05-03T20:30:00Z,28.9818,-94.9186,1018.55,11111222 
TABS,ioos:station:wmo:42043:1,2014-05-03T21:00:00Z,28.9818,-94.9186,1018.36,11111222 
TABS,ioos:station:wmo:42043:1,2014-05-03T21:30:00Z,28.9818,-94.9186,1018.22,11111222 
TABS,ioos:station:wmo:42043:1,2014-05-03T22:00:00Z,28.9818,-94.9186,1018.22,11111222 
TABS,ioos:station:wmo:42043:1,2014-05-03T22:30:00Z,28.9818,-94.9186,1018.06,11111222 
TABS,ioos:station:wmo:42043:1,2014-05-03T23:00:00Z,28.9818,-94.9186,1018.25,11111222 
TABS,ioos:station:wmo:42043:1,2014-05-03T23:30:00Z,28.9818,-94.9186,1018.17,11111222 
TABS,ioos:station:wmo:42043:1,2014-05-04T00:00:00Z,28.9818,-94.9186,1017.67,11111222 
TABS,ioos:station:wmo:42043:1,2014-05-04T00:30:00Z,28.9818,-94.9186,1018.19,11111222 
TABS,ioos:station:wmo:42043:1,2014-05-04T01:00:00Z,28.9818,-94.9186,1018.46,11111222 
TABS,ioos:station:wmo:42043:1,2014-05-04T01:30:00Z,28.9818,-94.9186,1018.74,11111222 
TABS,ioos:station:wmo:42043:1,2014-05-04T02:00:00Z,28.9818,-94.9186,1018.81,11111222 
TABS,ioos:station:wmo:42043:1,2014-05-04T02:30:00Z,28.9818,-94.9186,1019.07,11111222 
TABS,ioos:station:wmo:42043:1,2014-05-04T03:00:00Z,28.9818,-94.9186,1019.46,11111222 
TABS,ioos:station:wmo:42043:1,2014-05-04T03:30:00Z,28.9818,-94.9186,1019.76,11111222 
TABS,ioos:station:wmo:42043:1,2014-05-04T04:00:00Z,28.9818,-94.9186,1020.08,11111222 
TABS,ioos:station:wmo:42043:1,2014-05-04T04:30:00Z,28.9818,-94.9186,1019.97,11111222 
TABS,ioos:station:wmo:42043:1,2014-05-04T05:00:00Z,28.9818,-94.9186,1019.89,11111222 
TABS,ioos:station:wmo:42043:1,2014-05-04T05:30:00Z,28.9818,-94.9186,1020.02,11111222 
TABS,ioos:station:wmo:42043:1,2014-05-04T06:00:00Z,28.9818,-94.9186,1019.95,11111222 
TABS,ioos:station:wmo:42043:1,2014-05-04T06:30:00Z,28.9818,-94.9186,1019.81,11111222 
TABS,ioos:station:wmo:42043:1,2014-05-04T07:00:00Z,28.9818,-94.9186,1019.63,11111222 
TABS,ioos:station:wmo:42043:1,2014-05-04T07:30:00Z,28.9818,-94.9186,1019.48,11111222 
TABS,ioos:station:wmo:42043:1,2014-05-04T08:00:00Z,28.9818,-94.9186,1019.21,11111222 
TABS,ioos:station:wmo:42043:1,2014-05-04T08:30:00Z,28.9818,-94.9186,1019.32,11111222 
TABS,ioos:station:wmo:42043:1,2014-05-04T09:00:00Z,28.9818,-94.9186,1019.23,11111222 
TABS,ioos:station:wmo:42043:1,2014-05-04T09:30:00Z,28.9818,-94.9186,1019.49,11111222 
TABS,ioos:station:wmo:42043:1,2014-05-04T10:00:00Z,28.9818,-94.9186,1019.42,11111222 
TABS,ioos:station:wmo:42043:1,2014-05-04T10:30:00Z,28.9818,-94.9186,1019.63,11111222 
TABS,ioos:station:wmo:42043:1,2014-05-04T11:00:00Z,28.9818,-94.9186,1019.99,11111222 
TABS,ioos:station:wmo:42043:1,2014-05-04T11:30:00Z,28.9818,-94.9186,1020.09,11111222 
TABS,ioos:station:wmo:42043:1,2014-05-04T12:00:00Z,28.9818,-94.9186,1020.5,11111222 
TABS,ioos:station:wmo:42043:1,2014-05-04T12:30:00Z,28.9818,-94.9186,1020.8,11111222 
TABS,ioos:station:wmo:42043:1,2014-05-04T13:00:00Z,28.9818,-94.9186,1020.84,11111222 
TABS,ioos:station:wmo:42043:1,2014-05-04T13:30:00Z,28.9818,-94.9186,1021.05,11111222 
TABS,ioos:station:wmo:42043:1,2014-05-04T14:00:00Z,28.9818,-94.9186,1021.29,11111222 
TABS,ioos:station:wmo:42043:1,2014-05-04T14:30:00Z,28.9818,-94.9186,1021.27,11111222 
TABS,ioos:station:wmo:42043:1,2014-05-04T15:00:00Z,28.9818,-94.9186,1021.51,11111222 
TABS,ioos:station:wmo:42043:1,2014-05-04T15:30:00Z,28.9818,-94.9186,1021.35,11111222 
TABS,ioos:station:wmo:42043:1,2014-05-04T16:00:00Z,28.9818,-94.9186,1021.45,11111222 
TABS,ioos:station:wmo:42043:1,2014-05-04T16:30:00Z,28.9818,-94.9186,1021.55,11111222 
TABS,ioos:station:wmo:42043:1,2014-05-04T17:00:00Z,28.9818,-94.9186,1021.29,11111222 
TABS,ioos:station:wmo:42043:1,2014-05-04T17:30:00Z,28.9818,-94.9186,1021.18,11111222 
TABS,ioos:station:wmo:42043:1,2014-05-04T18:00:00Z,28.9818,-94.9186,1020.96,11111222 
TABS,ioos:station:wmo:42043:1,2014-05-04T18:30:00Z,28.9818,-94.9186,1020.98,11111222 
TABS,ioos:station:wmo:42043:1,2014-05-04T19:00:00Z,28.9818,-94.9186,1020.72,11111222 
TABS,ioos:station:wmo:42043:1,2014-05-04T19:30:00Z,28.9818,-94.9186,1020.61,11111222 
TABS,ioos:station:wmo:42043:1,2014-05-04T20:00:00Z,28.9818,-94.9186,1020.23,11111222 
TABS,ioos:station:wmo:42043:1,2014-05-04T20:30:00Z,28.9818,-94.9186,1020.11,11111222 
TABS,ioos:station:wmo:42043:1,2014-05-04T21:00:00Z,28.9818,-94.9186,1019.64,11111222 
TABS,ioos:station:wmo:42043:1,2014-05-04T21:30:00Z,28.9818,-94.9186,1019.52,11111222 
TABS,ioos:station:wmo:42043:1,2014-05-04T22:00:00Z,28.9818,-94.9186,1019.29,11111222 
TABS,ioos:station:wmo:42043:1,2014-05-04T22:30:00Z,28.9818,-94.9186,1018.98,11111222 
TABS,ioos:station:wmo:42043:1,2014-05-04T23:00:00Z,28.9818,-94.9186,1018.76,11111222 
TABS,ioos:station:wmo:42043:1,2014-05-04T23:30:00Z,28.9818,-94.9186,1018.55,11111222 
TABS,ioos:station:wmo:42043:1,2014-05-05T00:00:00Z,28.9818,-94.9186,1018.45,11111222 
TABS,ioos:station:wmo:42043:1,2014-05-05T00:30:00Z,28.9818,-94.9186,1018.42,11111222 
TABS,ioos:station:wmo:42043:1,2014-05-05T01:00:00Z,28.9818,-94.9186,1018.57,11111222 
TABS,ioos:station:wmo:42043:1,2014-05-05T01:30:00Z,28.9818,-94.9186,1018.8,11111222 
TABS,ioos:station:wmo:42043:1,2014-05-05T02:00:00Z,28.9818,-94.9186,1018.71,11111222 
TABS,ioos:station:wmo:42043:1,2014-05-05T02:30:00Z,28.9818,-94.9186,1018.83,11111222 
TABS,ioos:station:wmo:42043:1,2014-05-05T03:00:00Z,28.9818,-94.9186,1018.94,11111222 
TABS,ioos:station:wmo:42043:1,2014-05-05T03:30:00Z,28.9818,-94.9186,1019.15,11111222 
TABS,ioos:station:wmo:42043:1,2014-05-05T04:00:00Z,28.9818,-94.9186,1019.17,11111222 
TABS,ioos:station:wmo:42043:1,2014-05-05T04:30:00Z,28.9818,-94.9186,1019.29,11111222 
TABS,ioos:station:wmo:42043:1,2014-05-05T05:00:00Z,28.9818,-94.9186,1019.22,11111222 
TABS,ioos:station:wmo:42043:1,2014-05-05T05:30:00Z,28.9818,-94.9186,1018.98,11111222 
TABS,ioos:station:wmo:42043:1,2014-05-05T06:00:00Z,28.9818,-94.9186,1018.88,11111222 
TABS,ioos:station:wmo:42043:1,2014-05-05T06:30:00Z,28.9818,-94.9186,1018.83,11111222 
TABS,ioos:station:wmo:42043:1,2014-05-05T07:00:00Z,28.9818,-94.9186,1018.55,11111222 
TABS,ioos:station:wmo:42043:1,2014-05-05T07:30:00Z,28.9818,-94.9186,1018.27,11111222 
TABS,ioos:station:wmo:42043:1,2014-05-05T08:00:00Z,28.9818,-94.9186,1017.77,11111222 
TABS,ioos:station:wmo:42043:1,2014-05-05T08:30:00Z,28.9818,-94.9186,1017.57,11111222 
TABS,ioos:station:wmo:42043:1,2014-05-05T09:00:00Z,28.9818,-94.9186,1017.57,11111222 
TABS,ioos:station:wmo:42043:1,2014-05-05T09:30:00Z,28.9818,-94.9186,1017.48,11111222 
TABS,ioos:station:wmo:42043:1,2014-05-05T10:00:00Z,28.9818,-94.9186,1017.4,11111222 
TABS,ioos:station:wmo:42043:1,2014-05-05T10:30:00Z,28.9818,-94.9186,1017.3,11111222 
TABS,ioos:station:wmo:42043:1,2014-05-05T11:00:00Z,28.9818,-94.9186,1017.18,11111222 
TABS,ioos:station:wmo:42043:1,2014-05-05T11:30:00Z,28.9818,-94.9186,1017.76,11111222 
TABS,ioos:station:wmo:42043:1,2014-05-05T12:00:00Z,28.9818,-94.9186,1017.82,11111222 
TABS,ioos:station:wmo:42043:1,2014-05-05T12:30:00Z,28.9818,-94.9186,1017.68,11111222 
TABS,ioos:station:wmo:42043:1,2014-05-05T13:00:00Z,28.9818,-94.9186,1017.77,11111222 
TABS,ioos:station:wmo:42043:1,2014-05-05T13:30:00Z,28.9818,-94.9186,1018.04,11111222 
TABS,ioos:station:wmo:42043:1,2014-05-05T14:00:00Z,28.9818,-94.9186,1018.27,11111222 
TABS,ioos:station:wmo:42043:1,2014-05-05T14:30:00Z,28.9818,-94.9186,1018.41,11111222 
TABS,ioos:station:wmo:42043:1,2014-05-05T15:00:00Z,28.9818,-94.9186,1018.18,11111222 
TABS,ioos:station:wmo:42043:1,2014-05-05T15:30:00Z,28.9818,-94.9186,1018.24,11111222 
TABS,ioos:station:wmo:42043:1,2014-05-05T16:00:00Z,28.9818,-94.9186,1018.27,11111222 
TABS,ioos:station:wmo:42043:1,2014-05-05T16:30:00Z,28.9818,-94.9186,1018.28,11111222 
TABS,ioos:station:wmo:42043:1,2014-05-05T17:00:00Z,28.9818,-94.9186,1018.2,11111222 
TABS,ioos:station:wmo:42043:1,2014-05-05T17:30:00Z,28.9818,-94.9186,1018.07,11111222 
TABS,ioos:station:wmo:42043:1,2014-05-05T18:00:00Z,28.9818,-94.9186,1017.88,11111222 
TABS,ioos:station:wmo:42043:1,2014-05-05T18:30:00Z,28.9818,-94.9186,1017.39,11111222 
TABS,ioos:station:wmo:42043:1,2014-05-05T19:00:00Z,28.9818,-94.9186,1016.91,11111222 
TABS,ioos:station:wmo:42043:1,2014-05-05T19:30:00Z,28.9818,-94.9186,1016.47,11111222 
TABS,ioos:station:wmo:42043:1,2014-05-05T20:00:00Z,28.9818,-94.9186,1016.06,11111222 
TABS,ioos:station:wmo:42043:1,2014-05-05T20:30:00Z,28.9818,-94.9186,1015.69,11111222 
TABS,ioos:station:wmo:42043:1,2014-05-05T21:00:00Z,28.9818,-94.9186,1015.45,11111222 
TABS,ioos:station:wmo:42043:1,2014-05-05T21:30:00Z,28.9818,-94.9186,1015.0,11111222 
TABS,ioos:station:wmo:42043:1,2014-05-05T22:00:00Z,28.9818,-94.9186,1014.76,11111222 
TABS,ioos:station:wmo:42043:1,2014-05-05T22:30:00Z,28.9818,-94.9186,1014.53,11111222 
TABS,ioos:station:wmo:42043:1,2014-05-05T23:00:00Z,28.9818,-94.9186,1014.32,11111222 
TABS,ioos:station:wmo:42043:1,2014-05-05T23:30:00Z,28.9818,-94.9186,1014.05,11111222 
TABS,ioos:station:wmo:42043:1,2014-05-06T00:00:00Z,28.9818,-94.9186,1014.32,11111222 
TABS,ioos:station:wmo:42043:1,2014-05-06T00:30:00Z,28.9818,-94.9186,1014.12,11111222 
TABS,ioos:station:wmo:42043:1,2014-05-06T01:00:00Z,28.9818,-94.9186,1014.1,11111222 
TABS,ioos:station:wmo:42043:1,2014-05-06T01:30:00Z,28.9818,-94.9186,1014.26,11111222 
TABS,ioos:station:wmo:42043:1,2014-05-06T02:00:00Z,28.9818,-94.9186,1014.48,11111222 
TABS,ioos:station:wmo:42043:1,2014-05-06T02:30:00Z,28.9818,-94.9186,1014.61,11111222 
TABS,ioos:station:wmo:42043:1,2014-05-06T03:00:00Z,28.9818,-94.9186,1014.93,11111222 
TABS,ioos:station:wmo:42043:1,2014-05-06T03:30:00Z,28.9818,-94.9186,1015.07,11111222 
TABS,ioos:station:wmo:42043:1,2014-05-06T04:00:00Z,28.9818,-94.9186,1015.12,11111222 
TABS,ioos:station:wmo:42043:1,2014-05-06T04:30:00Z,28.9818,-94.9186,1014.82,11111222 
TABS,ioos:station:wmo:42043:1,2014-05-06T05:00:00Z,28.9818,-94.9186,1014.47,11111222 
TABS,ioos:station:wmo:42043:1,2014-05-06T05:30:00Z,28.9818,-94.9186,1014.31,11111222 
TABS,ioos:station:wmo:42043:1,2014-05-06T06:00:00Z,28.9818,-94.9186,1014.16,11111222 
TABS,ioos:station:wmo:42043:1,2014-05-06T06:30:00Z,28.9818,-94.9186,1013.74,11111222 
TABS,ioos:station:wmo:42043:1,2014-05-06T07:00:00Z,28.9818,-94.9186,1013.87,11111222 
TABS,ioos:station:wmo:42043:1,2014-05-06T07:30:00Z,28.9818,-94.9186,1013.13,11111222 
TABS,ioos:station:wmo:42043:1,2014-05-06T08:00:00Z,28.9818,-94.9186,1012.88,11111222 
TABS,ioos:station:wmo:42043:1,2014-05-06T08:30:00Z,28.9818,-94.9186,1012.19,11111222 
TABS,ioos:station:wmo:42043:1,2014-05-06T09:00:00Z,28.9818,-94.9186,1012.3,11111222 
TABS,ioos:station:wmo:42043:1,2014-05-06T09:30:00Z,28.9818,-94.9186,1012.33,11111222 
TABS,ioos:station:wmo:42043:1,2014-05-06T10:00:00Z,28.9818,-94.9186,1012.34,11111222 
TABS,ioos:station:wmo:42043:1,2014-05-06T10:30:00Z,28.9818,-94.9186,1012.82,11111222 
TABS,ioos:station:wmo:42043:1,2014-05-06T11:00:00Z,28.9818,-94.9186,1012.84,11111222 
TABS,ioos:station:wmo:42043:1,2014-05-06T11:30:00Z,28.9818,-94.9186,1012.86,11111222 
TABS,ioos:station:wmo:42043:1,2014-05-06T12:00:00Z,28.9818,-94.9186,1013.27,11111222 
TABS,ioos:station:wmo:42043:1,2014-05-06T12:30:00Z,28.9818,-94.9186,1013.19,11111222 
TABS,ioos:station:wmo:42043:1,2014-05-06T13:00:00Z,28.9818,-94.9186,1013.4,11111222 
TABS,ioos:station:wmo:42043:1,2014-05-06T13:30:00Z,28.9818,-94.9186,1013.66,11111222 
TABS,ioos:station:wmo:42043:1,2014-05-06T14:00:00Z,28.9818,-94.9186,1013.8,11111222 
TABS,ioos:station:wmo:42043:1,2014-05-06T14:30:00Z,28.9818,-94.9186,1013.96,11111222 
TABS,ioos:station:wmo:42043:1,2014-05-06T15:00:00Z,28.9818,-94.9186,1014.13,11111222 
TABS,ioos:station:wmo:42043:1,2014-05-06T15:30:00Z,28.9818,-94.9186,1014.25,11111222 
TABS,ioos:station:wmo:42043:1,2014-05-06T16:00:00Z,28.9818,-94.9186,1014.3,11111222 
TABS,ioos:station:wmo:42043:1,2014-05-06T16:30:00Z,28.9818,-94.9186,1014.41,11111222 
TABS,ioos:station:wmo:42043:1,2014-05-06T17:00:00Z,28.9818,-94.9186,1014.15,11111222 
TABS,ioos:station:wmo:42043:1,2014-05-06T17:30:00Z,28.9818,-94.9186,1014.12,11111222 
TABS,ioos:station:wmo:42043:1,2014-05-06T18:00:00Z,28.9818,-94.9186,1013.63,11111222 
TABS,ioos:station:wmo:42043:1,2014-05-06T18:30:00Z,28.9818,-94.9186,1013.49,11111222 